This is the latest recevied weather packets stored in our database for station/object KF7OVD-WX. If no packets are shown the sender has not sent any weather packets the latest 10 day(s).
| Time | Temp. | Humidity | Pressure | Rain* | Wind** | Luminosity | Snow |
|---|---|---|---|---|---|---|---|
| 1778289323 | 30° C | 14% | 1018.1 hPa | 0 mm | - | - | - |
| 1778288718 | 30.56° C | 14% | 1018.1 hPa | 0 mm | - | - | - |
| 1778288415 | 30.56° C | 14% | 1018.1 hPa | 0 mm | - | - | - |
| 1778287526 | 31.67° C | 14% | 1018.3 hPa | 0 mm | - | - | - |
| 1778286016 | 31.67° C | 13% | 1018.4 hPa | 0 mm | - | - | - |
| 1778284225 | 31.67° C | 12% | 1018.5 hPa | 0 mm | - | - | - |
| 1778282430 | 32.78° C | 13% | 1018.6 hPa | 0 mm | - | - | - |
| 1778280939 | 32.78° C | 13% | 1018.6 hPa | 0 mm | - | - | - |
| 1778280331 | 32.78° C | 14% | 1018.8 hPa | 0 mm | - | - | - |
| 1778279121 | 31.67° C | 15% | 1019 hPa | 0 mm | - | - | - |
| 1778278219 | 33.33° C | 14% | 1019.3 hPa | 0 mm | - | - | - |
| 1778277917 | 32.22° C | 15% | 1019.3 hPa | 0 mm | - | - | - |
| 1778273121 | 32.22° C | 14% | 1020.2 hPa | 0 mm | - | - | - |
| 1778271647 | 31.67° C | 14% | 1020.5 hPa | 0 mm | - | - | - |
| 1778269266 | 31.11° C | 15% | 1020.7 hPa | 0 mm | - | - | - |
| 1778268943 | 31.67° C | 14% | 1020.7 hPa | 0 mm | - | - | - |
| 1778268621 | 32.78° C | 15% | 1020.7 hPa | 0 mm | - | - | - |
| 1778268318 | 32.22° C | 15% | 1020.8 hPa | 0 mm | - | - | - |
| 1778266523 | 32.22° C | 17% | 1021 hPa | 0 mm | - | - | - |
| 1778265319 | 31.67° C | 20% | 1021.3 hPa | 0 mm | - | - | - |
| 1778263523 | 29.44° C | 20% | 1021.4 hPa | 0 mm | - | - | - |
| 1778261727 | 29.44° C | 22% | 1021.8 hPa | 0 mm | - | - | - |
| 1778261424 | 29.44° C | 22% | 1021.8 hPa | 0 mm | - | - | - |
| 1778257820 | 27.78° C | 23% | 1021.9 hPa | 0 mm | - | - | - |
| 1778256629 | 26.67° C | 25% | 1021.9 hPa | 0 mm | - | - | - |
* Rain latest hour (hover to see other rain measurements)
** Current wind speed in m/s (hover to see current wind gust speed)